GW3097 Weather Reports


time (UTC)temp
F
wind
direction
speed
knots
gust
knots
rain 1hr
in
rain 24hr
in
rain mn
in
humidity
%
barometer
mb
20260506124801 61 203 3.5 7.8 0.00 0.01 0.01 82 1038.9
20260506124258 61 216 2.6 8.7 0.05 0.01 0.01 79 1038.7
20260506123755 62 70 2.6 7.0 0.05 0.01 0.01 78 1038.5
20260506123254 62 222 3.5 6.1 0.00 0.00 0.00 76 1038.3
20260506122750 62 249 1.7 5.2 0.00 0.00 0.00 74 1038.2
20260506122247 63 262 2.6 7.8 0.00 0.00 0.00 72 1038.2
20260506121745 63 199 1.7 7.0 0.00 0.00 0.00 70 1038.5
20260506121242 63 210 1.7 5.2 0.00 0.00 0.00 68 1038.5
20260506120739 62 241 2.6 5.2 0.00 0.00 0.00 67 1038.4
20260506120237 63 256 0.9 1.7 0.00 0.00 0.00 67 1038.8
20260506115735 62 239 1.7 2.6 0.00 0.00 0.00 66 1038.8
20260506115233 63 254 0.9 2.6 0.00 0.00 0.00 65 1038.6
20260506114730 63 254 0.9 2.6 0.00 0.00 0.00 65 1038.5
20260506114227 63 254 0.9 1.7 0.00 0.00 0.00 64 1038.4
20260506113726 63 245 0.9 3.5 0.00 0.00 0.00 64 1038.6
20260506113223 63 250 0.9 3.5 0.00 0.00 0.00 64 1038.6
20260506112719 63 240 0.9 1.7 0.00 0.00 0.00 65 1038.5
20260506112217 63 255 1.7 2.6 0.00 0.00 0.00 64 1038.6
20260506111714 63 254 0.9 1.7 0.00 0.00 0.00 64 1038.4
20260506111213 63 222 3.5 3.5 0.00 0.00 0.00 64 1038.4
20260506110709 62 233 2.6 2.6 0.00 0.00 0.00 63 1038.7
20260506110207 62 249 1.7 2.6 0.00 0.00 0.00 63 1038.5
20260506105703 63 249 0.9 1.7 0.00 0.00 0.00 63 1038.4
20260506105200 63 256 1.7 6.1 0.00 0.00 0.00 61 1038.3
20260506104658 63 260 0.0 1.7 0.00 0.00 0.00 61 1038.2
20260506104155 62 258 0.9 0.9 0.00 0.00 0.00 61 1038.1
20260506103652 63 265 0.9 1.7 0.00 0.00 0.00 61 1037.9
20260506103149 63 260 0.0 1.7 0.00 0.00 0.00 60 1038.0
20260506102647 63 259 0.0 1.7 0.00 0.00 0.00 60 1038.0
20260506102144 63 252 0.0 0.9 0.00 0.00 0.00 59 1038.1
20260506101641 63 257 0.9 1.7 0.00 0.00 0.00 59 1037.9
20260506101138 63 246 0.0 0.9 0.00 0.00 0.00 58 1038.1
20260506100637 63 255 0.9 0.9 0.00 0.00 0.00 57 1038.0
20260506100134 63 256 0.9 1.7 0.00 0.00 0.00 57 1038.1
20260506095633 63 242 1.7 2.6 0.00 0.00 0.00 57 1038.0
20260506095129 63 242 0.9 2.6 0.00 0.00 0.00 57 1038.2
20260506094626 63 250 1.7 1.7 0.00 0.00 0.00 56 1038.3
20260506094124 63 249 0.0 0.0 0.00 0.00 0.00 56 1038.2
20260506093623 63 263 0.0 0.0 0.00 0.00 0.00 56 1038.1
20260506093119 63 260 0.0 0.0 0.00 0.00 0.00 55 1037.9
20260506092617 63 262 0.0 0.0 0.00 0.00 0.00 55 1038.1
20260506092114 63 260 0.0 0.0 0.00 0.00 0.00 55 1037.9
20260506091612 62 264 0.0 0.0 0.00 0.00 0.00 56 1038.1
20260506091109 63 268 0.0 0.0 0.00 0.00 0.00 56 1038.0
20260506090607 62 264 0.0 0.0 0.00 0.00 0.00 57 1038.2
20260506085600 61 283 0.0 0.0 0.00 0.00 0.00 60 1038.4
20260506085056 61 282 0.0 0.0 0.00 0.00 0.00 59 1038.2
20260506084553 62 273 0.0 0.0 0.00 0.00 0.00 58 1038.3
20260506084049 62 262 0.0 0.0 0.00 0.00 0.00 56 1038.4
20260506083547 62 258 0.0 0.0 0.00 0.00 0.00 56 1038.6
20260506083044 62 263 0.0 0.0 0.00 0.00 0.00 56 1038.5
20260506082541 62 263 0.0 0.0 0.00 0.00 0.00 55 1038.3
20260506082036 63 258 0.0 0.0 0.00 0.00 0.00 55 1038.5
20260506081535 63 249 0.0 0.0 0.00 0.00 0.00 54 1038.3
20260506081032 63 265 0.0 0.0 0.00 0.00 0.00 53 1038.3
20260506080530 64 254 0.0 0.0 0.00 0.00 0.00 53 1038.1
20260506073513 64 262 0.0 0.0 0.00 0.00 0.00 53 1038.4
20260506073010 64 262 0.0 0.0 0.00 0.00 0.00 53 1038.5
20260506072507 64 260 0.0 0.0 0.00 0.00 0.00 53 1038.5
20260506072005 64 258 0.0 0.0 0.00 0.00 0.00 52 1038.7
20260506071503 64 259 0.0 0.0 0.00 0.00 0.00 52 1038.8
20260506070959 63 262 0.0 0.0 0.00 0.00 0.00 54 1038.8
20260506070456 62 264 0.0 0.0 0.00 0.00 0.00 55 1038.6
20260506062434 62 269 0.0 0.0 0.00 0.00 0.00 58 1038.8
20260506061930 61 271 0.0 0.0 0.00 0.00 0.00 60 1038.7
20260506061426 61 271 0.0 0.0 0.00 0.00 0.00 61 1038.9
20260506060925 62 264 0.0 0.0 0.00 0.00 0.00 60 1039.0
20260506060423 62 257 0.0 0.9 0.00 0.00 0.00 59 1039.1
20260506051354 62 268 0.0 0.0 0.00 0.00 0.00 61 1039.3
20260506050851 62 268 0.0 0.0 0.00 0.00 0.00 62 1039.4
20260506050349 62 266 0.0 0.0 0.00 0.00 0.00 62 1039.5
20260506044839 63 264 0.0 0.0 0.00 0.00 0.00 59 1039.3
20260506044337 63 263 0.0 0.0 0.00 0.00 0.00 59 1039.5
20260506043834 63 264 0.0 0.0 0.00 0.00 0.00 59 1039.5
20260506043331 63 263 0.0 0.9 0.00 0.00 0.00 58 1039.6
20260506042829 63 274 0.0 0.0 0.00 0.00 0.00 59 1039.5
20260506042328 63 276 0.0 0.9 0.00 0.00 0.00 60 1039.5
20260506041827 63 283 0.9 0.9 0.00 0.00 0.00 61 1039.5
20260506041323 62 290 0.9 1.7 0.00 0.00 0.00 61 1039.5
20260506040820 63 286 0.9 1.7 0.00 0.00 0.00 61 1039.6
20260506040318 63 273 0.0 0.9 0.00 0.00 0.00 60 1039.7
20260506035814 63 280 0.0 0.9 0.00 0.03 0.03 60 1039.7
20260506035311 63 271 0.9 0.9 0.00 0.03 0.03 61 1039.6
20260506034809 63 256 0.9 0.9 0.00 0.03 0.03 61 1039.6
20260506034306 63 264 0.0 0.0 0.00 0.03 0.03 59 1039.6
20260506033802 64 269 0.0 0.0 0.00 0.03 0.03 58 1039.5
20260506033259 64 272 0.0 0.0 0.00 0.03 0.03 57 1039.5
20260506032756 64 270 0.0 0.0 0.00 0.03 0.03 57 1039.6
20260506032253 64 272 0.0 0.9 0.00 0.03 0.03 57 1039.5
20260506031750 64 273 0.9 1.7 0.00 0.03 0.03 57 1039.4
20260506031247 64 280 0.9 1.7 0.00 0.03 0.03 57 1039.5
20260506030745 65 271 1.7 1.7 0.00 0.03 0.03 57 1039.5
20260506030243 65 283 1.7 1.7 0.00 0.03 0.03 55 1039.5
20260506025739 66 274 0.9 0.9 0.00 0.03 0.03 54 1039.4
20260506025235 66 271 0.9 0.9 0.00 0.03 0.03 54 1039.4
20260506024732 66 276 0.9 0.9 0.00 0.03 0.03 54 1039.3
20260506024228 67 275 0.9 0.9 0.00 0.03 0.03 54 1039.5
20260506023720 67 267 0.0 0.0 0.00 0.03 0.03 53 1039.5
20260506023217 67 269 0.9 0.9 0.00 0.03 0.03 52 1039.5
20260506022714 68 268 0.0 0.9 0.00 0.03 0.03 51 1039.5
20260506022212 68 263 0.9 0.9 0.00 0.03 0.03 51 1039.5
20260506021709 68 260 0.0 0.9 0.00 0.03 0.03 51 1039.7
20260506021206 69 254 0.9 0.9 0.00 0.03 0.03 50 1039.5
20260506020703 69 245 1.7 1.7 0.00 0.03 0.03 49 1039.5
20260506020201 69 250 1.7 2.6 0.00 0.03 0.03 49 1039.7
20260506015658 69 260 0.9 1.7 0.00 0.03 0.03 49 1039.5
20260506015156 69 260 1.7 2.6 0.00 0.03 0.03 48 1039.4
20260506014653 69 261 0.9 2.6 0.00 0.03 0.03 48 1039.4
20260506014148 69 248 1.7 1.7 0.00 0.03 0.03 48 1039.3
20260506013646 69 262 0.9 1.7 0.00 0.03 0.03 49 1039.5
20260506013143 69 266 0.0 1.7 0.00 0.03 0.03 49 1039.3
20260506012639 69 264 0.9 0.9 0.00 0.03 0.03 49 1039.2
20260506012135 70 264 0.9 0.9 0.00 0.03 0.03 48 1039.1
20260506011628 71 243 1.7 1.7 0.00 0.03 0.03 46 1038.9
20260506011124 71 244 0.9 1.7 0.00 0.03 0.03 46 1038.9
20260506010623 70 239 0.0 1.7 0.00 0.03 0.03 47 1038.9
20260506010119 71 254 0.0 0.9 0.00 0.03 0.03 46 1038.7
20260506005616 71 260 0.0 0.9 0.00 0.03 0.03 45 1038.8
20260506005113 71 254 0.9 0.9 0.00 0.03 0.03 44 1038.7
20260506004610 72 257 0.0 1.7 0.00 0.03 0.03 44 1038.7
20260506004106 72 225 3.5 6.1 0.00 0.03 0.03 43 1038.9
20260506003602 72 245 0.9 2.6 0.00 0.03 0.03 43 1038.7
20260506003059 73 256 0.0 1.7 0.00 0.03 0.03 43 1038.7
20260506002554 73 228 1.7 2.6 0.00 0.03 0.03 43 1038.7
20260506002051 73 255 0.9 1.7 0.00 0.03 0.03 43 1038.6
20260506001547 73 259 0.9 1.7 0.00 0.03 0.03 43 1038.6
20260506001045 73 249 1.7 1.7 0.00 0.03 0.03 43 1038.6
20260506000542 73 258 0.9 2.6 0.00 0.03 0.03 43 1038.6
20260506000039 73 247 0.9 1.7 0.00 0.03 0.03 44 1038.5
20260505235537 73 245 0.9 1.7 0.00 0.03 0.03 44 1038.4
20260505235034 73 241 0.9 2.6 0.00 0.03 0.03 43 1038.3
20260505234531 73 249 1.7 5.2 0.00 0.03 0.03 42 1038.3
20260505234027 73 224 2.6 2.6 0.00 0.03 0.03 43 1038.5
20260505233525 73 258 1.7 5.2 0.00 0.03 0.03 43 1038.1
20260505233022 73 258 1.7 5.2 0.00 0.03 0.03 43 1038.3
20260505232520 73 209 1.7 2.6 0.00 0.03 0.03 44 1038.3
20260505232018 73 241 1.7 2.6 0.00 0.03 0.03 44 1038.3
20260505231514 73 242 2.6 3.5 0.00 0.03 0.03 44 1038.3
20260505231013 73 234 2.6 5.2 0.00 0.03 0.03 45 1038.2
20260505230510 73 252 3.5 3.5 0.00 0.03 0.03 46 1038.3
20260505230007 72 263 0.9 2.6 0.00 0.03 0.03 47 1038.1
20260505225504 72 258 2.6 3.5 0.00 0.03 0.03 46 1037.8
20260505224959 73 241 1.7 3.5 0.00 0.03 0.03 47 1038.4
20260505224456 73 263 1.7 2.6 0.00 0.03 0.03 47 1038.0
20260505223954 73 262 1.7 2.6 0.00 0.03 0.03 47 1038.0
20260505223450 73 259 1.7 2.6 0.00 0.03 0.03 47 1037.9
20260505222947 73 246 2.6 2.6 0.00 0.03 0.03 45 1037.5
20260505222443 73 250 1.7 3.5 0.00 0.03 0.03 46 1037.9
20260505221939 73 258 1.7 1.7 0.00 0.03 0.03 46 1037.9
20260505221437 73 252 0.9 2.6 0.00 0.03 0.03 46 1038.0
20260505220933 73 249 0.9 1.7 0.00 0.03 0.03 46 1038.1
20260505220430 73 225 2.6 2.6 0.00 0.03 0.03 45 1037.8
20260505215928 73 224 3.5 5.2 0.00 0.03 0.03 45 1038.0
20260505215426 73 225 3.5 6.1 0.00 0.03 0.03 45 1037.9
20260505214924 73 208 3.5 5.2 0.00 0.03 0.03 45 1037.9
20260505214421 73 231 4.3 5.2 0.00 0.03 0.03 44 1037.9
20260505213918 73 228 3.5 5.2 0.00 0.03 0.03 44 1037.8
20260505213416 73 213 1.7 5.2 0.00 0.03 0.03 44 1037.9
20260505212912 73 224 5.2 6.1 0.00 0.03 0.03 43 1037.8
20260505212409 74 193 4.3 6.1 0.00 0.03 0.03 42 1038.0
20260505211905 73 185 5.2 7.8 0.00 0.03 0.03 42 1038.0
20260505211403 75 199 4.3 8.7 0.00 0.03 0.03 42 1038.0
20260505210859 75 233 7.8 9.6 0.00 0.03 0.03 40 1037.7
20260505210356 75 191 6.1 13.9 0.00 0.03 0.03 40 1038.0
20260505205853 75 224 9.6 14.8 0.00 0.03 0.03 40 1037.7
20260505205351 75 211 8.7 26.1 0.00 0.03 0.03 39 1037.5
20260505204848 77 242 3.5 12.2 0.00 0.03 0.03 34 1037.7
20260505204346 77 234 7.0 13.0 0.00 0.03 0.03 34 1037.1
20260505203843 77 245 7.8 12.2 0.00 0.03 0.03 34 1037.1
20260505203339 77 208 9.6 13.9 0.00 0.03 0.03 33 1037.2
20260505202836 77 244 7.8 16.5 0.00 0.03 0.03 33 1037.1
20260505202332 77 227 2.6 9.6 0.00 0.03 0.03 33 1037.1
20260505201829 77 237 7.8 9.6 0.00 0.03 0.03 32 1037.1
20260505201326 77 241 9.6 19.1 0.00 0.03 0.03 32 1036.8
20260505200824 78 251 7.8 16.5 0.00 0.03 0.03 32 1037.0
20260505200321 78 189 12.2 14.8 0.00 0.03 0.03 31 1037.1
20260505195816 78 216 10.4 19.1 0.00 0.03 0.03 31 1037.0
20260505195314 78 245 6.1 20.0 0.00 0.03 0.03 32 1037.0
20260505194811 78 248 15.6 18.2 0.00 0.03 0.03 32 1037.2
20260505194308 79 264 4.3 13.0 0.00 0.03 0.03 31 1037.0
20260505193803 80 212 7.0 20.0 0.00 0.03 0.03 29 1036.9
20260505193301 79 226 10.4 20.9 0.00 0.03 0.03 31 1037.2
20260505192759 79 220 12.2 14.8 0.00 0.03 0.03 31 1037.1
20260505192257 78 249 11.3 14.8 0.00 0.03 0.03 32 1037.2
20260505191754 78 236 6.1 13.9 0.00 0.03 0.03 32 1037.3
20260505191253 77 225 12.2 16.5 0.00 0.03 0.03 31 1037.3
20260505190749 78 217 10.4 18.2 0.00 0.03 0.03 30 1037.5
20260505190244 78 214 12.2 18.2 0.00 0.03 0.03 30 1037.7
20260505185740 77 221 5.2 14.8 0.00 0.03 0.03 32 1037.8
20260505185237 78 225 13.0 19.1 0.00 0.03 0.03 31 1037.9
20260505184733 78 238 13.9 30.4 0.00 0.03 0.03 32 1038.1
20260505184231 78 209 12.2 23.5 0.00 0.03 0.03 31 1037.9
20260505183727 79 211 9.6 13.0 0.00 0.03 0.03 32 1038.1
20260505183224 78 219 9.6 19.1 0.00 0.03 0.03 34 1038.0
20260505182720 78 262 13.9 21.7 0.00 0.03 0.03 33 1038.4
20260505182218 78 248 12.2 19.1 0.00 0.03 0.03 34 1038.1
20260505181714 78 196 16.5 26.9 0.00 0.03 0.03 32 1038.4
20260505181212 78 248 9.6 18.2 0.00 0.03 0.03 33 1038.5
20260505180708 78 206 9.6 16.5 0.00 0.03 0.03 33 1038.6
20260505180205 78 190 5.2 15.6 0.00 0.03 0.03 36 1038.3
20260505175701 77 207 13.0 19.1 0.00 0.03 0.03 36 1038.6
20260505175157 77 203 11.3 16.5 0.00 0.03 0.03 36 1039.0
20260505174654 77 244 14.8 18.2 0.00 0.03 0.03 35 1038.8
20260505174150 77 204 13.9 20.9 0.00 0.03 0.03 35 1038.7
20260505173647 78 214 11.3 22.6 0.00 0.03 0.03 34 1038.8
20260505173144 78 216 9.6 20.0 0.00 0.03 0.03 35 1038.8
20260505172641 77 266 10.4 18.2 0.00 0.03 0.03 35 1038.4
20260505172138 78 241 3.5 12.2 0.00 0.03 0.03 39 1038.5
20260505171637 78 291 6.1 19.1 0.00 0.03 0.03 38 1038.7
20260505171135 78 225 6.1 20.0 0.00 0.03 0.03 38 1038.6
20260505170632 77 199 7.8 15.6 0.00 0.03 0.03 39 1038.6
20260505170128 77 220 11.3 15.6 0.00 0.03 0.03 37 1038.6
20260505165624 77 214 7.8 13.9 0.00 0.03 0.03 38 1038.7
20260505165120 77 230 9.6 20.0 0.00 0.03 0.03 39 1038.9
20260505164615 77 242 10.4 20.9 0.00 0.03 0.03 38 1038.9
20260505164113 77 173 5.2 14.8 0.00 0.03 0.03 39 1039.2
20260505163612 76 243 12.2 14.8 0.00 0.03 0.03 39 1039.0
20260505163109 77 208 8.7 15.6 0.00 0.03 0.03 39 1039.1
20260505162606 77 167 5.2 9.6 0.00 0.03 0.03 40 1038.9
20260505162104 76 215 5.2 13.9 0.00 0.03 0.03 41 1039.2
20260505161600 76 232 9.6 16.5 0.00 0.03 0.03 41 1039.1
20260505161058 76 232 7.0 16.5 0.00 0.03 0.03 41 1039.4
20260505160555 76 180 9.6 16.5 0.00 0.03 0.03 41 1039.4
20260505153032 75 249 6.1 13.0 0.00 0.03 0.03 43 1039.6
20260505152529 74 251 7.8 14.8 0.00 0.03 0.03 43 1039.7
20260505152024 74 251 7.8 14.8 0.00 0.03 0.03 44 1039.9
20260505151520 73 232 7.8 13.0 0.00 0.03 0.03 45 1039.8
20260505151018 73 241 9.6 13.9 0.00 0.03 0.03 44 1039.9
20260505150514 73 238 9.6 15.6 0.00 0.03 0.03 45 1039.8
20260505140439 71 223 4.3 13.0 0.00 0.03 0.03 49 1040.1
20260505124852 64 252 2.6 5.2 0.00 0.03 0.03 62 1040.6